#timestamp,LO_Frequency,Hit,StdDev 
1577163615.8,286046987.1,Y
1577163635.7,286046986.9,P
1577163655.5,286046989.1,N
1577163675.3,286046989.0,N
1577163695.2,286046997.8,N
1577163715.0,286046997.7,N
1577163715.9,286046997.7,N
1577163735.7,286046993.8,N
1577163755.6,286046992.2,N
1577163775.4,286046997.0,N
1577163795.3,286047005.3,N
1577163815.1,286047004.1,N
1577163816.0,286047004.1,N
1577163835.8,286047007.6,N
1577163855.7,286047000.2,N
1577163875.5,286047011.5,N
1577163895.3,286047010.2,N
1577163915.2,286047010.2,N
1577163935.0,286047009.9,N
1577163935.9,286047009.9,N
1577163955.8,286047010.0,N
1577163975.6,286047011.0,N
1577163995.4,286047013.2,N
1577164015.3,286047008.5,N
1577164035.1,286047005.0,N
1577164055.8,286047001.1,N
1577164075.7,286046999.0,N
1577164095.5,286046996.5,N
1577164115.4,286047007.6,N
1577164135.2,286047015.0,N
1577164155.0,286047008.0,N
1577164155.9,286047008.0,N
1577164175.8,286047006.9,N
1577164195.6,286047009.0,N
1577164215.5,286047005.3,N
1577164235.3,286047007.7,N
1577164255.1,286047007.9,N
1577164275.9,286047012.2,N
1577164295.7,286047005.4,N
1577164315.6,286047006.8,N
1577164335.4,286047002.3,N
1577164355.2,286046997.6,N
1577164375.1,286046999.8,N
1577164376.0,286046999.8,N
1577164395.8,286047003.8,N
1577164415.6,286047002.5,N
1577164435.5,286046997.0,N
1577164455.3,286047004.0,N
1577164475.2,286046996.6,N
1577164495.9,286046999.9,N
1577164515.7,286047007.8,N
1577164535.6,286047001.3,N
1577164555.4,286047006.5,N
1577164575.2,286047011.8,N
1577164595.1,286047011.9,N
1577164596.0,286047011.7,N
1577164615.8,286047010.6,N
1577164635.7,286047017.3,Y
1577164655.5,286047017.3,P
1577164675.3,286047011.7,N
1577164695.2,286047014.9,P
1577164715.0,286047010.8,N
1577164715.9,286047010.8,N
1577164735.8,286047000.8,N
1577164755.6,286047004.7,N
1577164775.4,286047008.9,N
1577164795.3,286047012.1,N
1577164815.1,286047009.5,N
1577164835.8,286047018.1,Y
1577164855.7,286047007.6,P
1577164875.5,286047003.9,P
1577164895.4,286047001.1,N
1577164915.2,286046998.1,N
1577164935.0,286046999.8,N
1577164935.9,286046999.8,N
1577164955.8,286047005.2,N
1577164975.6,286046997.6,N
1577164995.4,286046998.9,N
1577165015.3,286047012.0,Y
1577165035.1,286047008.5,P
1577165055.9,286047005.7,N
1577165075.7,286047002.3,N
1577165095.5,286046995.3,N
1577165115.4,286046991.7,N
1577165135.2,286046993.4,N
1577165155.0,286046996.4,N
1577165155.9,286046996.4,N
1577165175.8,286046989.6,N
1577165195.6,286046988.7,N
1577165215.5,286047000.8,N
1577165235.3,286047007.6,N
1577165255.1,286046999.0,N
1577165275.9,286047004.2,N
1577165295.7,286047006.8,N
1577165315.5,286047003.2,N
1577165335.4,286046997.3,N
1577165355.2,286047002.8,N
1577165375.1,286047009.9,N
1577165376.0,286047009.9,N
1577165395.8,286047005.6,N
1577165415.6,286047009.6,N
1577165435.5,286047015.2,N
1577165455.3,286047005.2,N
1577165475.1,286046999.2,N
1577165495.9,286046999.3,N
1577165515.7,286047005.1,N
1577165535.6,286047012.5,N
1577165555.4,286047019.0,N
1577165575.2,286047017.2,N
1577165595.1,286047009.0,N
1577165596.0,286047009.0,N
1577165615.8,286047004.9,N
1577165635.6,286047004.4,N
1577165655.5,286047005.3,N
1577165675.3,286047008.7,N
1577165695.2,286047011.5,N
1577165715.9,286047013.1,N
1577165735.7,286047011.3,N
1577165755.6,286047004.3,N
1577165775.4,286047003.9,N
1577165795.2,286047018.4,Y
1577165815.1,286047010.8,P
1577165816.0,286047010.8,P
1577165835.8,286047005.6,P
1577165855.7,286047000.8,N
1577165875.5,286046992.5,N
1577165895.3,286046993.8,N
1577165915.2,286046999.0,N
1577165935.0,286046991.9,N
1577165935.9,286046991.9,N
1577165955.8,286046995.5,N
1577165975.6,286046990.0,N
1577165995.4,286046984.3,N
1577166015.3,286046999.2,N
1577166035.1,286047007.0,N
1577166055.8,286047011.9,N
1577166075.7,286047004.8,N
1577166095.5,286047004.0,N
1577166115.4,286047003.3,N
1577166135.2,286047008.4,N
1577166155.0,286047011.8,N
1577166155.9,286047011.8,N
1577166175.8,286047002.6,N
1577166195.6,286046998.9,N
1577166215.4,286047008.3,N
1577166235.3,286047004.8,N
1577166255.1,286047001.9,N
1577166275.9,286046993.4,N
1577166295.7,286047002.3,N
1577166315.5,286047006.7,N
1577166335.4,286047009.0,N
1577166355.2,286047009.5,N
1577166375.0,286047017.2,N
1577166376.0,286047017.2,N
1577166395.8,286047007.6,N
1577166415.6,286047008.6,N
1577166435.5,286047004.5,N
1577166455.3,286047009.4,N
1577166475.1,286047013.5,N
1577166495.9,286047005.3,N
1577166515.7,286047009.9,N
1577166535.5,286047006.9,N
1577166555.4,286047010.8,N
1577166575.2,286047004.5,N
1577166595.1,286047009.2,N
1577166596.0,286047009.2,N
1577166615.8,286046998.2,N
1577166635.6,286046996.9,N
1577166655.5,286046990.6,N
1577166675.3,286046991.4,N
1577166695.2,286046982.2,N
1577166715.9,286046982.2,N
1577166735.7,286046987.8,N
1577166755.6,286046988.0,N
1577166775.4,286046989.8,N
1577166795.2,286046990.5,N
1577166815.1,286046992.2,N
1577166816.0,286046992.2,N
1577166835.8,286046988.0,N
1577166855.7,286046986.6,N
1577166875.5,286046982.2,N
1577166895.3,286046978.2,N
1577166915.2,286046975.4,N
1577166935.0,286046982.3,N
1577166935.9,286046982.3,N
1577166955.7,286046983.0,N
1577166975.6,286046982.6,N
1577166995.4,286046990.3,N
1577167015.3,286046987.6,N
1577167035.1,286046981.1,N
1577167036.0,286046981.1,N
1577167055.8,286046987.8,N
1577167075.7,286046986.5,N
1577167095.5,286046990.1,N
1577167115.3,286046992.4,N
1577167135.2,286046991.0,N
1577167155.0,286046990.2,N
1577167155.9,286046990.2,N
1577167175.8,286046980.7,Y
1577167195.6,286047002.8,P
